[[{"header":{"parameterUnit":"m.s-1","parameterCategory":1,"la1":30.2991,"la2":30.254,"lo1":-89.0895,"lo2":-89.0444,"dx":0.0017,"dy":0.0017,"nx":28,"ny":28,"refTime":"2022-12-09T15:00:00:Z","depth":0,"parameterNumber":2,"parameterNumberName":"U-component_of_WINDS"},"data":[0,0,0,0,0,0,0,0,0,0,0,0,0,0,0,0,0,0,0,0,0,0,0,0,0,0,0,0,0,0,0,0,0,0,0,0,0,0,0,0,0,0,0,0,0,0,0,0,0,0,0,0,0,0,0,0,0,0,1.6394,1.6394,0,1.6415,1.6415,1.6415,1.6396,1.6395,1.6395,1.6394,1.6415,1.6416,1.6418,0,0,0,0,0,0,0,0,0,0,0,0,0,1.634,1.6341,1.6394,1.6394,1.6394,1.6415,1.6415,1.6415,1.6396,1.6395,1.6394,1.6393,1.6415,1.6416,1.6418,0,0,0,0,0,0,0,0,0,0,0,0,0,1.6362,1.6341,1.6394,1.6387,1.6387,1.6415,1.6415,1.6415,1.6396,1.6395,1.6394,1.6393,1.6414,1.6416,1.6418,1.6453,0,0,1.6424,1.6425,0,0,0,0,0,0,0,0,1.6361,1.6364,1.6388,1.6388,1.6388,1.6402,1.6404,1.6428,1.6397,1.6393,1.6394,1.6392,1.6412,1.6414,1.642,1.6454,1.6455,1.6424,1.6425,1.6426,1.6427,0,0,0,0,0,0,0,1.636,1.6363,1.6402,1.6388,1.6388,1.6384,1.6386,1.6408,1.6408,1.6393,1.6392,1.6394,1.6411,1.6418,1.642,1.6455,1.6424,1.6426,1.6427,1.6428,1.6522,1.6524,0,0,0,0,0,0,1.6359,1.6362,1.6401,1.6403,1.6371,1.6386,1.6388,1.6398,1.6408,1.6408,1.6395,1.6393,1.6415,1.6418,1.6421,1.6465,1.6426,1.6428,1.6429,1.6521,1.6523,1.6524,0,0,0,0,0,0,1.6357,1.6362,1.6401,1.6382,1.6387,1.6388,1.64,1.6399,1.6406,1.641,1.641,1.6402,1.6415,1.6418,1.6446,1.6465,1.6429,1.643,1.6519,1.6521,1.6523,1.6551,0,0,0,0,0,0,1.6356,1.6362,1.6375,1.6383,1.6388,1.6424,1.6401,1.64,1.641,1.6407,1.6417,1.6417,1.6414,1.6443,1.6448,1.6467,1.6432,1.6518,1.652,1.6523,1.6549,1.6554,1.6559,0,0,0,0,0,1.6354,1.6381,1.6375,1.638,1.6404,1.6426,1.6429,1.6425,1.6411,1.6425,1.6427,1.6417,1.6462,1.6446,1.6451,1.6471,1.6516,1.6519,1.6522,1.6546,1.6553,1.6559,0,0,0,0,0,0,1.6374,1.6382,1.6376,1.6406,1.6415,1.6422,1.6439,1.6431,1.6445,1.6442,1.6437,1.6439,1.6469,1.6473,1.6454,1.6508,1.6487,1.6491,1.6504,1.651,1.6515,1.6514,1.6434,0,0,0,0,0,1.6383,1.6399,1.6405,1.6431,1.6436,1.6437,1.6446,1.6443,1.6452,1.6456,1.6461,1.6471,1.6488,1.6499,1.6515,1.6549,1.6552,1.6566,1.6571,1.6575,1.6579,1.66,1.6607,1.6534,1.6534,1.6534,0,0,1.6399,1.6405,1.6416,1.6435,1.6442,1.6461,1.644,1.646,1.6474,1.6459,1.6486,1.649,1.6501,1.6533,1.6548,1.6538,1.66,1.6579,1.6582,1.6584,1.6604,1.6611,1.6617,1.6536,1.6536,1.6535,0,0,1.6439,1.6445,1.6468,1.6476,1.6488,1.6488,1.6494,1.6503,1.6506,1.6532,1.6523,1.654,1.6568,1.6577,1.6586,1.6633,1.6624,1.6638,1.6664,1.6685,1.6691,1.6696,1.6715,1.6721,1.6642,1.6642,1.6642,0,1.6458,1.6486,1.6481,1.6503,1.6513,1.6501,1.6526,1.6534,1.655,1.6557,1.6546,1.6583,1.659,1.6625,1.6637,1.6643,1.6651,1.6637,1.669,1.6695,1.67,1.6718,1.6725,1.6644,1.6643,1.6643,1.6643,0,1.651,1.6529,1.6547,1.6564,1.6575,1.6598,1.6599,1.6612,1.6608,1.661,1.6639,1.6647,1.6665,1.6673,1.6669,1.6709,1.6703,1.6691,1.6671,1.6709,1.6726,1.6732,1.6646,1.6645,1.6645,1.6644,0,0,1.6562,1.6578,1.6585,1.6593,1.6606,1.6621,1.6645,1.6663,1.6675,1.6687,1.6708,1.6734,1.6724,1.6734,1.6731,1.6749,1.6789,1.6735,1.6736,1.6747,1.6836,1.6846,1.6853,1.6783,1.6785,1.6786,1.6836,0,1.6604,1.6645,1.6643,1.6681,1.6701,1.6691,1.6712,1.6723,1.6727,1.6744,1.6748,1.6767,1.6752,1.6758,1.6775,1.678,1.6807,1.6776,1.6804,1.6805,1.6802,1.6862,1.6871,1.6918,1.6842,1.6843,1.6844,0,1.6657,1.6673,1.6714,1.6727,1.6735,1.6753,1.6772,1.6788,1.6801,1.6802,1.6815,1.681,1.6835,1.6815,1.6851,1.683,1.6842,1.6846,1.6848,1.6851,1.6827,1.6868,1.6933,1.694,1.6854,1.6853,1.6852,0,1.6694,1.6724,1.6753,1.6761,1.6776,1.679,1.6797,1.6809,1.6821,1.6837,1.6846,1.6864,1.6875,1.689,1.6891,1.6875,1.6929,1.6907,1.6932,1.6932,1.6943,1.6943,1.7012,1.6949,1.6949,1.6949,1.6949,0,1.6741,1.6767,1.677,1.6788,1.6818,1.6816,1.6846,1.6851,1.6863,1.6883,1.6876,1.6895,1.6894,1.6914,1.6915,1.6946,1.6951,1.6954,1.6954,1.6955,1.6955,1.6963,1.696,1.6951,1.695,1.695,1.695,0,1.6786,1.6789,1.6821,1.6833,1.6837,1.6859,1.687,1.6888,1.6892,1.6917,1.6923,1.6929,1.6953,1.6955,1.6982,1.6983,1.7021,1.7017,1.7017,1.7016,1.7042,1.704,1.7119,1.7131,1.7059,1.706,1.706,0,1.6817,1.6836,1.6852,1.6865,1.6873,1.6894,1.6907,1.6907,1.6921,1.694,1.6956,1.6979,1.6997,1.7035,1.7042,1.7063,1.7061,1.7087,1.7064,1.7065,1.7063,1.7062,1.7065,1.7092,1.7093,1.7093,1.7094,0,1.6871,1.6872,1.6891,1.6912,1.6927,1.6943,1.6958,1.6969,1.6972,1.6988,1.7012,1.7027,1.7055,1.7079,1.71,1.7108,1.7103,1.7101,1.7109,1.711,1.711,1.7112,1.703,1.7099,1.7099,1.7099,1.7098,1.7098,1.6911,1.6929,1.6944,1.6966,1.6977,1.6992,1.7011,1.7017,1.7038,1.7061,1.706,1.7088,1.7103,1.7131,1.7142,1.7164,1.7155,1.7165,1.7167,1.717,1.7174,1.7106,1.7167,1.7167,1.7167,1.7167,1.7167,0,1.6966,1.6976,1.6996,1.7018,1.7036,1.7029,1.7046,1.7062,1.7086,1.7101,1.712,1.7149,1.7173,1.7183,1.7206,1.7222,1.722,1.7228,1.7228,1.723,1.7179,1.7171,1.723,1.723,1.723,1.723,1.723,1.723,1.6997,1.7028,1.7032,1.707,1.708,1.7106,1.7117,1.7132,1.7144,1.7177,1.7197,1.7203,1.7217,1.7242,1.7264,1.7267,1.7276,1.7286,1.7287,1.724,1.7233,1.7227,1.722,1.7288,1.7288,1.7337,1.7337,1.7338]},{"header":{"parameterUnit":"m.s-1","parameterCategory":1,"la1":30.2991,"la2":30.254,"lo1":-89.0895,"lo2":-89.0444,"dx":0.0017,"dy":0.0017,"nx":28,"ny":28,"refTime":"2022-12-09T15:00:00:Z","depth":0,"parameterNumber":3,"parameterNumberName":"V-component_of_WINDS"},"data":[0,0,0,0,0,0,0,0,0,0,0,0,0,0,0,0,0,0,0,0,0,0,0,0,0,0,0,0,0,0,0,0,0,0,0,0,0,0,0,0,0,0,0,0,0,0,0,0,0,0,0,0,0,0,0,0,0,0,1.7823,1.7824,0,1.7896,1.7897,1.7898,1.7889,1.7888,1.7887,1.7885,1.7958,1.7961,1.7964,0,0,0,0,0,0,0,0,0,0,0,0,0,1.767,1.7673,1.7823,1.7824,1.7825,1.7896,1.7897,1.7898,1.7889,1.7888,1.7886,1.7885,1.7957,1.7961,1.7964,0,0,0,0,0,0,0,0,0,0,0,0,0,1.7739,1.7674,1.7823,1.7829,1.783,1.7896,1.7897,1.7899,1.7889,1.7888,1.7886,1.7884,1.7956,1.796,1.7965,1.8029,0,0,1.7979,1.7981,0,0,0,0,0,0,0,0,1.7736,1.7745,1.7827,1.7829,1.783,1.7882,1.787,1.7942,1.789,1.7867,1.7885,1.7883,1.7934,1.794,1.7958,1.8032,1.8035,1.7979,1.7982,1.7984,1.7985,0,0,0,0,0,0,0,1.7731,1.7742,1.7852,1.7829,1.783,1.7826,1.7834,1.7884,1.7909,1.7869,1.7868,1.7877,1.7934,1.7953,1.7959,1.8036,1.7979,1.7983,1.7986,1.7988,1.816,1.8162,0,0,0,0,0,0,1.7725,1.7738,1.785,1.7854,1.7778,1.7831,1.7839,1.7867,1.7909,1.7914,1.7879,1.7876,1.7947,1.7954,1.7962,1.8036,1.7984,1.7988,1.7991,1.8158,1.816,1.8162,0,0,0,0,0,0,1.7722,1.7735,1.7847,1.7796,1.781,1.7835,1.7866,1.7869,1.7888,1.7916,1.7921,1.7894,1.7945,1.7956,1.8011,1.8038,1.799,1.7994,1.8156,1.8159,1.8161,1.8185,0,0,0,0,0,0,1.7717,1.7734,1.776,1.7797,1.7813,1.7897,1.7868,1.7872,1.7897,1.7894,1.7932,1.7936,1.7945,1.8004,1.8015,1.8043,1.7998,1.8154,1.8157,1.8161,1.8182,1.8189,1.8194,0,0,0,0,0,1.7712,1.7765,1.7762,1.7775,1.7846,1.7898,1.7907,1.7917,1.7899,1.7924,1.7941,1.7935,1.8033,1.801,1.8023,1.8052,1.8152,1.8156,1.816,1.818,1.8187,1.8194,0,0,0,0,0,0,1.7732,1.777,1.7767,1.7834,1.7862,1.7897,1.7929,1.7926,1.796,1.7957,1.7966,1.7975,1.803,1.8047,1.802,1.8113,1.809,1.8097,1.81,1.8108,1.8114,1.8108,1.8002,0,0,0,0,0,1.7744,1.7784,1.7815,1.787,1.7885,1.7904,1.7928,1.7932,1.7962,1.7975,1.7996,1.8025,1.8061,1.8086,1.8122,1.8185,1.819,1.8211,1.8217,1.8221,1.8227,1.8257,1.8265,1.8176,1.8176,1.8176,0,0,1.7769,1.7795,1.782,1.7875,1.7898,1.7937,1.7915,1.7959,1.7987,1.7981,1.8034,1.805,1.8082,1.814,1.8167,1.8156,1.8252,1.8227,1.823,1.8233,1.8262,1.827,1.8278,1.8179,1.8178,1.8178,0,0,1.7835,1.786,1.7907,1.793,1.7964,1.7976,1.7987,1.8021,1.8031,1.8084,1.8079,1.8112,1.8176,1.8198,1.8218,1.8286,1.828,1.8297,1.8328,1.8357,1.8364,1.837,1.8391,1.8399,1.8303,1.8303,1.8303,0,1.7863,1.7923,1.7932,1.7974,1.7996,1.7992,1.8037,1.8059,1.8103,1.8118,1.8105,1.8182,1.8204,1.8265,1.8281,1.8298,1.8308,1.8293,1.8362,1.8368,1.8374,1.8394,1.8403,1.8304,1.8304,1.8304,1.8304,0,1.7952,1.7993,1.8027,1.8068,1.8094,1.8138,1.8151,1.8176,1.8177,1.8189,1.8241,1.8266,1.8305,1.832,1.8322,1.8379,1.8371,1.836,1.8337,1.8384,1.8403,1.8411,1.8307,1.8306,1.8306,1.8305,0,0,1.8035,1.8078,1.809,1.8106,1.8141,1.8173,1.8214,1.8252,1.8271,1.8301,1.8334,1.8386,1.8375,1.8397,1.8401,1.8427,1.8474,1.8412,1.8413,1.842,1.8535,1.8541,1.855,1.8471,1.8472,1.8473,1.8531,0,1.8102,1.8177,1.8183,1.825,1.8285,1.8279,1.8314,1.8338,1.835,1.838,1.8392,1.8428,1.8412,1.8424,1.845,1.8463,1.8497,1.8459,1.8499,1.85,1.849,1.8561,1.8569,1.8622,1.8539,1.854,1.8541,0,1.8192,1.8222,1.8291,1.8316,1.8331,1.8364,1.8396,1.8426,1.8451,1.8457,1.848,1.8479,1.8519,1.8494,1.8547,1.8521,1.8537,1.8546,1.8548,1.8551,1.8523,1.8563,1.864,1.8647,1.8553,1.8552,1.8551,0,1.8241,1.8299,1.8346,1.8361,1.8393,1.8415,1.8429,1.8453,1.8474,1.8501,1.8514,1.8546,1.8563,1.8587,1.8593,1.8575,1.8645,1.8622,1.8649,1.8648,1.8663,1.8662,1.8741,1.8677,1.8677,1.8677,1.8676,0,1.8314,1.8356,1.8368,1.8398,1.8442,1.8448,1.8492,1.8505,1.8525,1.8555,1.8551,1.8579,1.8587,1.8615,1.8621,1.8661,1.867,1.8674,1.8674,1.8673,1.8672,1.8683,1.8679,1.8679,1.8678,1.8678,1.8677,0,1.8377,1.8388,1.8438,1.8463,1.847,1.8502,1.8522,1.8549,1.8558,1.8595,1.8604,1.8618,1.865,1.8659,1.8699,1.8702,1.8749,1.8748,1.8741,1.874,1.8765,1.8762,1.8853,1.8864,1.8794,1.8795,1.8796,0,1.8423,1.8454,1.8481,1.85,1.8515,1.8546,1.8566,1.8572,1.8592,1.862,1.8643,1.8674,1.87,1.8752,1.8765,1.8794,1.8791,1.8821,1.8796,1.8792,1.8788,1.8785,1.8787,1.8825,1.8826,1.8827,1.8827,0,1.8501,1.8503,1.8532,1.8561,1.8584,1.8608,1.8631,1.8646,1.8654,1.8677,1.871,1.8729,1.8768,1.8798,1.8826,1.8839,1.8833,1.8835,1.8842,1.8841,1.8834,1.8835,1.8751,1.8833,1.8832,1.8832,1.8832,1.8831,1.8554,1.858,1.8601,1.8632,1.8649,1.8669,1.8694,1.8705,1.8732,1.8763,1.8765,1.8799,1.8819,1.8857,1.887,1.8896,1.8887,1.8898,1.8901,1.8903,1.8904,1.8831,1.8902,1.8901,1.8901,1.8901,1.8901,0,1.8629,1.8642,1.867,1.87,1.8723,1.8716,1.8739,1.8758,1.8789,1.8808,1.8832,1.8867,1.8896,1.8909,1.8937,1.8954,1.8952,1.8961,1.8959,1.8961,1.8912,1.8901,1.8962,1.8962,1.8962,1.8962,1.8962,1.8962,1.8671,1.8713,1.8717,1.8765,1.8777,1.881,1.8823,1.8841,1.8856,1.8895,1.8918,1.8926,1.8942,1.897,1.8995,1.8998,1.9007,1.9017,1.9018,1.8972,1.8965,1.8959,1.8949,1.9019,1.9019,1.9065,1.9066,1.9066]}]]